Weather History for Albuquerque Double Eagle, NM

Change the Weather History Date:

Saturday, December 7, 2013

  Actual Average Record
Temperature  
Mean Temperature 22 °F -  
Max Temperature 30 °F - - ()
Min Temperature 14 °F - - ()
Degree Days  
Heating Degree Days 43    
Moisture  
Dew Point 14 °F    
Average Humidity 83    
Maximum Humidity 100    
Minimum Humidity 4    
Precipitation  
Precipitation 0.00 in - - ()
Sea Level Pressure  
Sea Level Pressure 29.95 in    
Wind  
Wind Speed 6 mph (NNE)    
Max Wind Speed 17 mph    
Max Gust Speed 23 mph    
Visibility 9 miles    
Events Fog , Snow    
T = Trace of Precipitation, MM = Missing Value Source: NWS Daily Summary

Daily Weather History Graph

Daily Weather History Graph

Search for Another Location

Airport:

Trip Planner

Search our weather history database for the weather conditions in past years. The results will help you decide how hot, cold, wet, or windy it might be!

Date:

Astronomy

Dec. 07, 2013 Rise Set
Actual Time 7:02 AM MST 4:55 PM MST
Civil Twilight 6:34 AM MST 5:23 PM MST
Nautical Twilight 6:02 AM MST 5:54 PM MST
Astronomical Twilight 5:32 AM MST 6:25 PM MST
Moon 10:57 AM MST (12/7) 10:31 PM MST (12/7)
Length of Visible Light 10h 48m
Length of Day
9h 52m
Waxing Crescent, 30% of the Moon is Illuminated
Dec 7
Waxing Crescent
Dec 9
First Quarter
Dec 17
Full
Dec 25
Last Quarter
Jan 1
New

Hourly Weather History & Observations

Time (MST) Temp. Windchill Dew Point Humidity Pressure Visibility Wind Dir Wind Speed Gust Speed Precip Events Conditions
12:15 AM 17.1 °F 10.0 °F 11.7 °F 79% 30.08 in 10.0 mi NNE 4.6 mph - N/A   Clear
12:35 AM 18.3 °F 9.1 °F 12.0 °F 76% 30.07 in 10.0 mi NE 6.9 mph - N/A   Clear
12:55 AM 19.8 °F 9.1 °F 12.4 °F 73% 30.06 in 10.0 mi NE 9.2 mph - N/A   Clear
1:15 AM 19.2 °F - 12.0 °F 74% 30.06 in 10.0 mi Calm Calm - N/A   Clear
1:35 AM 19.2 °F 11.3 °F 10.9 °F 70% 30.06 in 10.0 mi NE 5.8 mph - N/A   Clear
1:55 AM 18.0 °F 11.1 °F 10.4 °F 72% 30.05 in 10.0 mi NE 4.6 mph - N/A   Clear
2:15 AM 16.3 °F 10.8 °F 10.2 °F 77% 30.06 in 10.0 mi NNE 3.5 mph - N/A   Clear
2:35 AM 16.0 °F 6.3 °F 9.5 °F 76% 30.05 in 10.0 mi NNE 6.9 mph - N/A   Clear
2:55 AM 16.5 °F 6.9 °F 10.2 °F 76% 30.06 in 10.0 mi NNE 6.9 mph - N/A   Clear
3:15 AM 15.4 °F 5.6 °F 9.9 °F 79% 30.05 in 10.0 mi North 6.9 mph - N/A   Clear
3:35 AM 14.5 °F 7.1 °F 9.5 °F 80% 30.06 in 10.0 mi NNE 4.6 mph - N/A   Clear
3:55 AM 14.7 °F 5.9 °F 9.5 °F 80% 30.05 in 10.0 mi NNE 5.8 mph - N/A   Clear
4:15 AM 15.3 °F 5.4 °F 10.0 °F 80% 30.05 in 10.0 mi NE 6.9 mph - N/A   Clear
4:35 AM 14.2 °F 6.7 °F 9.5 °F 82% 30.06 in 10.0 mi North 4.6 mph - N/A   Clear
5:48 AM 14.0 °F 2.9 °F 10.4 °F 86% 30.04 in 10.0 mi NNE 8.1 mph - N/A   Clear
6:48 AM 14.0 °F 5.1 °F 10.4 °F 86% 30.03 in 10.0 mi Variable 5.8 mph - N/A   Partly Cloudy
7:49 AM 15.8 °F 7.2 °F 12.2 °F 86% 30.04 in 10.0 mi Variable 5.8 mph - N/A   Partly Cloudy
8:26 AM 17.6 °F 8.2 °F 14.0 °F 86% 30.03 in 10.0 mi North 6.9 mph - N/A   Mostly Cloudy
8:48 AM 19.4 °F 10.4 °F 15.8 °F 86% 30.02 in 10.0 mi NNE 6.9 mph - N/A   Overcast
9:48 AM 23.0 °F 14.7 °F 17.6 °F 80% 30.01 in 10.0 mi NNE 6.9 mph - N/A   Overcast
10:49 AM 24.8 °F 16.9 °F 19.4 °F 80% 30.00 in 10.0 mi North 6.9 mph - N/A   Overcast
11:49 AM 24.8 °F 17.9 °F 19.4 °F 80% 29.97 in 10.0 mi NE 5.8 mph - N/A   Overcast
12:24 PM 24.8 °F 17.9 °F 21.2 °F 86% 29.94 in 3.0 mi Variable 5.8 mph - N/A Snow Light Snow
1:50 PM 26.6 °F - 24.8 °F 93% 29.89 in 3.0 mi Calm Calm - N/A   Overcast
2:50 PM 28.4 °F 22.2 °F 26.6 °F 93% 29.86 in 5.0 mi Variable 5.8 mph - N/A   Overcast
3:50 PM 28.4 °F 21.2 °F 26.6 °F 93% 29.83 in 5.0 mi Variable 6.9 mph - N/A   Overcast
4:50 PM 26.6 °F 17.5 °F 24.8 °F 93% 29.83 in 10.0 mi NNE 9.2 mph - N/A   Overcast
4:52 PM 26.6 °F 17.5 °F 24.8 °F 93% 29.83 in 10.0 mi NNE 9.2 mph - N/A   Overcast
5:49 PM 28.4 °F 23.3 °F - 4% 29.83 in 10.0 mi North 4.6 mph - N/A   Overcast
6:49 PM 30.2 °F 18.5 °F 28.4 °F 93% 29.82 in 10.0 mi South 17.3 mph 23.0 mph N/A   Overcast
7:49 PM 28.4 °F 20.4 °F 28.4 °F 100% 29.83 in 10.0 mi SW 8.1 mph - N/A   Overcast
8:49 PM 24.8 °F 20.5 °F 24.8 °F 100% 29.84 in 2.0 mi WSW 3.5 mph - N/A   Overcast
9:15 PM 25.7 °F 21.5 °F 25.2 °F 98% 29.84 in 0.2 mi WSW 3.5 mph - N/A Fog Light Freezing Fog
9:35 PM 23.0 °F 15.8 °F 22.3 °F 97% 29.84 in 0.2 mi WSW 5.8 mph - N/A Fog Light Freezing Fog
9:55 PM 21.2 °F 11.7 °F 20.3 °F 96% 29.85 in 7.0 mi WSW 8.1 mph - N/A   Scattered Clouds
10:15 PM 22.1 °F 12.0 °F 20.5 °F 93% 29.86 in 10.0 mi SSW 9.2 mph - N/A   Mostly Cloudy
10:35 PM 24.8 °F 16.1 °F 22.5 °F 91% 29.86 in 10.0 mi South 8.1 mph - N/A   Overcast
10:55 PM 26.4 °F 17.3 °F 23.4 °F 88% 29.86 in 10.0 mi South 9.2 mph - N/A   Overcast
11:15 PM 27.5 °F 18.6 °F 22.5 °F 81% 29.86 in 10.0 mi SSW 9.2 mph - N/A   Overcast
11:35 PM 26.6 °F 16.8 °F 22.3 °F 84% 29.86 in 10.0 mi SSW 10.4 mph - N/A   Overcast
11:55 PM 26.6 °F 16.2 °F 22.5 °F 84% 29.85 in 10.0 mi SSW 11.5 mph - N/A   Overcast